Location: JKWMA (FRAC)
(33.1803°N, 84.5512°W)
Time: 19:54:12
(UTC-04:00)

Hubble Space Telescope - Pass Details

Date: 26 March 2019
Orbit: 537 x 540 km, 28.5° (Epoch: 21 April)

Event Time Altitude Azimuth Distance (km) Brightness Sun altitude
Rises 20:35:22 0° 241° (WSW) 2,669 5.2 -9.4°
Reaches altitude 10° 20:37:48 10° 230° (SW) 1,780 4.0 -9.9°
Maximum altitude 20:41:28 31° 167° (SSE) 947 1.8 -10.7°
Enters shadow 20:44:09 16° 113° (ESE) 1,456 2.3 -11.2°
